NOAA 16 DEB, 41139

Orbit data source: Space-Track

NOAA 16 DEB, 41139 is space debris in SSO originally from a launch on Thu, 21 Sep 2000 UTC launched from the Air Force Western Test Range (AFWTR). Debris objects in space refer to the collection of defunct objects orbiting the Earth. Examples of debris include non-operational satellites, rocket bodies, and fragments generated from explosions, collisions, or faulty payload assembly.

Loading next visibility...
Identifier
41139, 2000-055BW
Orbit
SSO
Country
Flag of USUS
Related business
Manufacturer
Unknown
Mission
Spacecraft
Bus & Motor
Unknown
Mass
Unknown
Launch date (UTC)
2000-09-21 (26 years ago)
Launch vehicle
Unknown
Launch site
Air Force Western Test Range (AFWTR)
Object type
Payload
Rocket body
Debris
Shape & HBR
Unknown shape, 0.1 m
Radar Cross Section
Small (<0.1 m²)

Expand to show TLE details & history
Last TLE update: 4 days ago

TLE from 4 days ago
0 NOAA 16 DEB
1 41139U 00055BW  26124.13352026  .00004515  00000-0  21996-2 0  9999
2 41139  98.9884 189.4803 0061854 145.9346 214.5822 14.17632360533205
Epoch: 2026-05-04T03:12Z
TLE epoch observation values (Epoch: 2026-05-04T03:12:16.150Z)
Latitude
-0.00006°
Longitude
-80.61407°
Altitude
873.094 km
Speed
7.397 km/s
True Right ascension
12h 37m 55s
True Declination
0° 00' 00"
Sunlit
Object was in full shadow at epoch
Visualization orbit readout
Latitude
Unknown
Longitude
Unknown
Altitude
Unknown
Speed
Unknown
Apparent Right ascension
Unknown
Apparent Declination
Unknown
Sunlit
N/A
Visualization observer readout
Local Sidereal Time
11:45:46
Azimuth
Unknown
Elevation
Unknown
Doppler factor
Unknown
Orbital elements
Apogee altitude
875.135 km
Perigee altitude
785.958 km
Semi-major axis
7,208.683 km
Eccentricity
0.00619
Inclination
98.9884°
RAAN
189.4803°
Arg. of periapsis
145.9346°
True anomaly
214.18245°
Mean anomaly
214.5822°
Eccentric anomaly
214.38207°
Mean motion
3.54617 °/min
Orbital period
101.52 mins
BSTAR
0.0021996
Loading maneuver chart data...
Computing Atmospheric mass density...

Documentation

Showing up to 5 results
|